COSMOS 1285 DEB, 26680

Orbit data source: Space-Track

COSMOS 1285 DEB, 26680 is space debris originally from a launch on Tue, 04 Aug 1981 UTC launched from the Plesetsk Missile And Space Complex (PKMTR). Debris objects in space refer to the collection of defunct objects orbiting the Earth. Examples of debris include non-operational satellites, rocket bodies, and fragments generated from explosions, collisions, or faulty payload assembly.

Loading next visibility...
Identifier
26680, 1981-071L
Orbit
Molniya
Country
Flag of CISCIS
Related business
Manufacturer
Unknown
Mission
Spacecraft
Bus & Motor
Unknown
Mass
Unknown
Launch date (UTC)
1981-08-04 (45 years ago)
Launch vehicle
Unknown
Launch site
Plesetsk Missile And Space Complex (PKMTR)
Object type
Payload
Rocket body
Debris
Shape & HBR
Unknown shape, 0.5 m
Radar Cross Section
Medium (>0.1 m² and <1 m²)

Expand to show TLE details & history
Last TLE update: 2 days ago

TLE from 2 days ago
0 COSMOS 1285 DEB
1 26680U 81071L   26262.10220990 -.00000938  00000-0  18838-2 0  9991
2 26680  62.7389 351.9750 7435711  46.2528 354.8808  1.98409540209865
Epoch: 2026-09-19T02:27Z
TLE epoch observation values (Epoch: 2026-09-19T02:27:10.935Z)
Latitude
0.00026°
Longitude
-42.7969°
Altitude
1,509.524 km
Speed
9.284 km/s
True Right ascension
23h 28m 03s
True Declination
0° 00' 01"
Sunlit
Object was in full shadow at epoch
Visualization orbit readout
Latitude
Unknown
Longitude
Unknown
Altitude
Unknown
Speed
Unknown
Apparent Right ascension
Unknown
Apparent Declination
Unknown
Sunlit
N/A
Visualization observer readout
Local Sidereal Time
00:44:51
Azimuth
Unknown
Elevation
Unknown
Doppler factor
Unknown
Orbital elements
Apogee altitude
40,264.544 km
Perigee altitude
481.653 km
Semi-major axis
26,751.235 km
Eccentricity
0.74357
Inclination
62.7389°
RAAN
351.975°
Arg. of periapsis
46.2528°
True anomaly
312.93051°
Mean anomaly
354.8808°
Eccentric anomaly
341.03524°
Mean motion
0.49605 °/min
Orbital period
725.73 mins
BSTAR
0.0018838
Loading maneuver chart data...
Computing Atmospheric mass density...
Loading historical data...
Loading historical data...
Loading historical data...
Loading historical data...
Loading historical data...
Loading historical data...
Loading historical data...

Documentation

Showing up to 5 results
|